Volver al catálogo

YUNYAO-1 36

ActivoMeteoSSO
NORAD 61904·PAYLOAD·🇨🇳 China
Este nombre de satélite aún no ha sido confirmado por fuentes oficiales.

Lanzado Nov 11, 2024 desde Jiuquan Satellite Launch Center

Loading…

Próximos Pases (próximas 24 horas)

TLE

ActualizadoSource: Space-Track

Época: Sep 14, 2026, 15:24 UTC

1 61904U 24205L   26257.64225461  .00005064  00000-0  30764-3 0  9993
2 61904  97.4052 324.9757 0067323  59.5853 301.2006 15.09005503101688

Sigue YUNYAO-1 36 en tiempo real con AllMySat

Download on the App Store